Regional Weather Roundup
Issued by NWS

Home | Current Version | Previous Version | Text Only | Print | Product List | Glossary On
Versions: 1 2 3 4 5 6 7 8 9 10 11 12 13 14 15 16 17 18 19 20 21 22 23 24 25 26 27 28 29 30 31 32 33 34 35 36 37 38 39 40 41 42 43 44 45 46 47 48 49 50
000
ASUS43 KTOP 061659
RWRKS

WEATHER ROUNDUP FOR KANSAS
NATIONAL WEATHER SERVICE GOODLAND KS
1200 PM CDT MON JUL 06 2015

NOTE:  "FAIR" INDICATES FEW OR NO CLOUDS BELOW 12,000 FEET WITH NO
SIGNIFICANT WEATHER AND/OR OBSTRUCTIONS TO VISIBILITY.

KSZ001>006-013>018-027>032-041>047-061800-
NORTHWEST KANSAS

CITY           SKY/WX    TMP DP  RH WIND       PRES   REMARKS
GOODLAND       CLOUDY    64  60  87 N22G32    30.13R
HAYS           CLOUDY    73  64  73 N17G23    29.95R
HILL CITY      CLOUDY    72  66  81 N20G29    30.00R
RUSSELL        LGT RAIN  76  72  87 NW15      29.92R
$$

KSZ061>065-074>080-084>089-061800-
SOUTHWEST KANSAS

CITY           SKY/WX    TMP DP  RH WIND       PRES   REMARKS
DODGE CITY     MOSUNNY   78  66  66 N26G33    29.96R
ELKHART          N/A     80  57  45 N21         N/A
GARDEN CITY    PTSUNNY   77  65  66 N28G36    30.00R
GREAT BEND     CLOUDY    86  68  54 NW9       29.89R
LIBERAL        MOSUNNY   82  66  57 N25G31    30.01R
$$

KSZ066>073-081>083-090>101-061800-
SOUTHEAST KANSAS

CITY           SKY/WX    TMP DP  RH WIND       PRES   REMARKS
CHANUTE        PTSUNNY   86  74  67 S15       29.94F
COFFEYVILLE    PTSUNNY   87  74  64 S15G23    29.94F HX  95
HUTCHINSON     MOSUNNY   92  69  47 S15G23    29.88R HX  97
MEDICINE LODGE   N/A     91  68  46 S14       29.87S HX  95
NEWTON         MOSUNNY   90  70  51 S18       29.92S HX  95
PARSONS        PTSUNNY   86  76  71 S13       29.96S HX  96
WICHITA INTL   PTSUNNY   92  69  47 S20G28    29.88S HX  97
WICHITA JABRA  MOSUNNY   90  71  53 S15G23    29.89S HX  96
WINFIELD       MOSUNNY   92  71  50 S20G26    29.92S HX  98
$$

KSZ007>012-019>026-033>040-048>060-102>105-061800-
NORTHEAST KANSAS

CITY           SKY/WX    TMP DP  RH WIND       PRES   REMARKS
CONCORDIA      LGT RAIN  75  70  84 NW15G23   29.91R
EMPORIA        MOSUNNY   88  73  61 S20G25    29.90F HX  95
LAWRENCE       MOSUNNY   87  73  62 S7        29.89F
MANHATTAN      PTSUNNY   89  72  56 SW10      29.87S HX  96
OLATHE IND     MOSUNNY   86  74  67 S15       29.92F
OLATHE EXE     PTSUNNY   83  74  74 S12       29.92F
SALINA         MOSUNNY   92  68  45 W3        29.86F HX  96
TOPEKA BILLARD MOSUNNY   87  73  62 S16G22    29.88F
TOPEKA FORBES  MOSUNNY   88  73  61 S17       29.89F HX  95
$$



USA.gov is the U.S. government's official web portal to all federal, state and local government web resources and services.